Overview Statistics Trail Chart Weather Telemetry Raw packets
 

This is the latest recevied weather packets stored in our database for station/object VU2EXP-13. If no packets are shown the sender has not sent any weather packets the latest 10 day(s).

<< 16 17 18 19 20 21 22 >>
Time Temp. Humidity Pressure Rain* Wind** Luminosity Snow
1787932585 30.56° C 58% 990.9 hPa - - - -
1787931684 30.56° C 58% 990.7 hPa - - - -
1787930787 30.56° C 57% 990.5 hPa - - - -
1787929884 30.56° C 56% 990.3 hPa - - - -
1787928995 31.11° C 55% 985.1 hPa - - - -
1787928405 31.11° C 55% 990 hPa - - - -
1787927505 31.11° C 54% 990 hPa - - - -
1787926605 31.67° C 54% 989.8 hPa - - - -
1787925704 31.67° C 53% 989.6 hPa - - - -
1787924805 31.67° C 53% 989.5 hPa - - - -
1787923905 32.22° C 52% 989.4 hPa - - - -
1787923004 32.22° C 51% 989.2 hPa - - - -
1787922105 32.78° C 50% 989.1 hPa - - - -
1787921204 32.78° C 50% 989 hPa - - - -
1787920304 33.33° C 49% 988.8 hPa - - - -
1787919404 33.89° C 47% 988.8 hPa - - - -
1787918503 33.89° C 46% 988.7 hPa - - - -
1787917604 34.44° C 45% 988.6 hPa - - - -
1787916704 35° C 44% 988.7 hPa - - - -
1787915803 35.56° C 43% 988.6 hPa - - - -
1787914903 35.56° C 43% 988.7 hPa - - - -
1787914003 36.11° C 43% 988.7 hPa - - - -
1787913104 34.44° C 45% 988.8 hPa - - - -
1787912203 36.11° C 44% 988.8 hPa - - - -
1787911303 35° C 45% 988.9 hPa - - - -

* Rain since midnight (hover to see other rain measurements)
** Current wind speed in m/s (hover to see current wind gust speed)